Weather Roundup
Issued by NWS

Home | Current Version | Previous Version | Text Only | Print | Product List | Glossary On
Versions: 1 2 3 4 5 6 7 8 9 10 11 12 13 14 15 16 17 18 19 20 21 22 23 24 25 26 27 28 29 30 31 32 33 34 35 36 37 38 39 40 41 42 43 44 45 46 47 48 49 50
000
NZUS93 KARX 272310
HRRWXR

CURRENT HOURLY OBSERVATIONS ACROSS
MUCH OF THE UPPER MISSISSIPPI VALLEY
NATIONAL WEATHER SERVICE LA CROSSE WI
600 PM CDT THU AUG 27 2015


...SOUTHEAST MINNESOTA...


CITY           SKY/WX    TMP DP  RH WIND       PRES   REMARKS
ROCHESTER      CLOUDY    69  60  73 S7        30.06F
ROCHESTER/MAYO FAIR      71  58  63 SE8G16    30.05F
WINONA         CLOUDY    73  59  60 CALM      30.07S
AUSTIN         CLOUDY    68  61  77 S6        30.03F
ALBERT LEA     CLOUDY    70  61  73 S8        30.05F
DODGE CENTER   CLOUDY    68  59  73 S6        30.03F
PRESTON        CLOUDY    69  58  68 S8        30.10S
OWATONNA       LGT RAIN  70  57  64 S13G20    30.04R
FARIBAULT      PTSUNNY   70  61  73 S7        30.04R
$$

...ELSEWHERE IN MINNESOTA...


CITY           SKY/WX    TMP DP  RH WIND       PRES   REMARKS
MINNEAPOLIS    PTSUNNY   75  59  57 S12       30.01F
INTNL FALLS    SUNNY     73  59  61 CALM      29.95F
DULUTH         MOSUNNY   68  56  65 SE10      30.02S
RED WING       CLOUDY    75  59  57 S7        30.03F
REDWOOD FALLS  CLOUDY    68  65  90 SE9       29.98F
MANKATO        CLOUDY    66  59  77 S9        30.02F
WORTHINGTON    CLOUDY    70  63  78 E5        30.05R
FAIRMONT       CLOUDY    70  57  64 S8        30.03F
$$

...SOUTHWEST WISCONSIN...


CITY           SKY/WX    TMP DP  RH WIND       PRES   REMARKS
LA CROSSE      PTSUNNY   75  58  55 S8        30.08R
PRAIRIE DU CHI CLOUDY    73  56  54 S5        30.09R
BOSCOBEL       PTSUNNY   75  59  57 S5        30.09S
LONE ROCK      PTSUNNY   73  58  59 S8        30.10S
PLATTEVILLE    PTSUNNY   70  61  72 S7        30.11S
FORT MC COY    PTSUNNY   73  56  55 S8        30.09S
CAMP DOUGLAS   PTSUNNY   73  61  64 S6        30.08S
VIROQUA        FAIR      72  58  62 S5        30.11R
WIS DELLS      PTSUNNY   73  55  51 SW10      30.10S
$$

...ELSEWHERE IN WISCONSIN...


CITY           SKY/WX    TMP DP  RH WIND       PRES   REMARKS
MILWAUKEE      PTSUNNY   68  53  58 S12       30.13R
MADISON        PTSUNNY   73  57  57 VRB7      30.10R
GREEN BAY      SUNNY     72  57  59 S6        30.09S
EAU CLAIRE     CLOUDY    72  56  57 S10       30.06S
BLACK RVR FLS  MOCLDY    73  56  55 CALM      30.08S
MEDFORD        CLOUDY    69  60  73 SW3       30.09S
WAUSAU         PTSUNNY   72  56  57 SW7       30.08R
WIS RAPIDS     PTSUNNY   74  55  51 SW7       30.10R
MARSHFIELD     CLOUDY    72  55  55 SW7       30.09R
RICE LAKE      PTSUNNY   70  59  69 S6        30.06F
$$

...NORTHEAST IOWA...


CITY           SKY/WX    TMP DP  RH WIND       PRES   REMARKS
DECORAH        CLOUDY    70  59  68 VRB3      30.11R
MASON CITY     CLOUDY    67  61  81 S12       30.06F
CHARLES CITY   CLOUDY    68  63  83 SE6       30.09F
OELWEIN          N/A     70  61  73 SW5       30.14R
$$

...ELSEWHERE IN IOWA...


CITY           SKY/WX    TMP DP  RH WIND       PRES   REMARKS
DES MOINES     PTSUNNY   74  60  61 SE14      30.02F
IOWA CITY      CLOUDY    72  60  66 S6        30.08F
FORT DODGE     PTSUNNY   72  61  68 E12       30.02F
$$

...NORTHERN ILLINOIS...


CITY           SKY/WX    TMP DP  RH WIND       PRES   REMARKS
CHICAGO-OHARE  PTSUNNY   70  52  52 E10       30.13S
CHICAGO-MIDWAY PTSUNNY   71  55  56 E9        30.13S
MOLINE         SUNNY     73  58  59 S6        30.09R
ROCKFORD       CLOUDY    71  56  58 SE8       30.14R
PEORIA         MOSUNNY   76  57  51 SE3       30.11F
$$

NOTE: "FAIR" INDICATES FEW OR NO CLOUDS BELOW 12,000 FEET WITH NO
SIGNIFICANT WEATHER AND/OR OBSTRUCTIONS TO VISIBILITY. WIND
SPEEDS ARE IN MILES-PER-HOUR.



USA.gov is the U.S. government's official web portal to all federal, state and local government web resources and services.